Weather History for Ellington Field, TX

Change the Weather History Date:

Tuesday, February 25, 2014

  Actual Average Record
Temperature  
Mean Temperature 71 °F -  
Max Temperature 80 °F 66 °F 80 °F (2001)
Min Temperature 62 °F 48 °F 41 °F (2003)
Cooling Degree Days 6    
Growing Degree Days 21 (Base 50)    
Moisture  
Dew Point 66 °F    
Average Humidity 91    
Maximum Humidity 100    
Minimum Humidity 70    
Precipitation  
Precipitation 0.00 in - - ()
Sea Level Pressure  
Sea Level Pressure 29.99 in    
Wind  
Wind Speed 4 mph (ESE)    
Max Wind Speed 13 mph    
Max Gust Speed -    
Visibility 3 miles    
Events Fog    
Averages and records for this station are not official NWS values.
T = Trace of Precipitation, MM = Missing Value Source: NWS Daily Summary

Daily Weather History Graph

Daily Weather History Graph

Search for Another Location

Airport:

Trip Planner

Search our weather history database for the weather conditions in past years. The results will help you decide how hot, cold, wet, or windy it might be!

Date:

Astronomy

Feb. 25, 2014 Rise Set
Actual Time 6:50 AM CST 6:17 PM CST
Civil Twilight 6:26 AM CST 6:41 PM CST
Nautical Twilight 5:58 AM CST 7:09 PM CST
Astronomical Twilight 5:31 AM CST 7:36 PM CST
Moon 3:33 AM CST (2/25) 2:35 PM CST (2/25)
Length of Visible Light 12h 14m
Length of Day
11h 26m
Waning Crescent, 18% of the Moon is Illuminated
Feb 25
Waning Crescent
Mar 1
New
Mar 8
First Quarter
Mar 16
Full
Mar 23
Last Quarter

Hourly Weather History & Observations

Time (CST) Temp. Heat Index Dew Point Humidity Pressure Visibility Wind Dir Wind Speed Gust Speed Precip Events Conditions
12:50 AM 62.6 °F - 62.6 °F 100% 30.04 in 0.5 mi East 3.5 mph - N/A Fog Fog
1:50 AM 62.6 °F - 62.6 °F 100% 30.03 in 0.5 mi East 5.8 mph - N/A Fog Fog
2:50 AM 62.6 °F - 62.6 °F 100% 30.02 in 0.2 mi East 3.5 mph - N/A Fog Fog
3:50 AM 62.6 °F - 62.6 °F 100% 30.01 in 0.2 mi ENE 3.5 mph - N/A Fog Fog
4:50 AM 62.6 °F - 62.6 °F 100% 30.02 in 0.2 mi ENE 3.5 mph - N/A Fog Fog
5:50 AM 62.6 °F - 62.6 °F 100% 30.02 in 0.5 mi ENE 3.5 mph - N/A Fog Fog
6:50 AM 62.6 °F - 62.6 °F 100% 30.04 in 0.2 mi East 5.8 mph - N/A Fog Fog
7:50 AM 64.4 °F - 62.6 °F 94% 30.06 in 2.0 mi Calm Calm - N/A   Overcast
8:50 AM 66.2 °F - 66.2 °F 100% 30.06 in 2.0 mi ESE 5.8 mph - N/A   Overcast
9:50 AM 68.0 °F - 68.0 °F 100% 30.07 in 2.0 mi SE 3.5 mph - N/A   Overcast
10:50 AM 71.6 °F - 69.8 °F 94% 30.06 in 4.0 mi Calm Calm - N/A   Mostly Cloudy
11:50 AM 71.6 °F - 71.6 °F 100% 30.04 in 5.0 mi Calm Calm - N/A   Mostly Cloudy
12:21 PM 78.8 °F - 71.6 °F 78% 30.01 in 6.0 mi South 5.8 mph - N/A   Mostly Cloudy
12:50 PM 80.6 °F 84.6 °F 71.6 °F 74% 29.99 in 7.0 mi South 6.9 mph - N/A   Mostly Cloudy
1:50 PM 80.6 °F 84.6 °F 71.6 °F 74% 29.94 in 7.0 mi SSE 5.8 mph - N/A   Mostly Cloudy
2:50 PM 80.6 °F 83.9 °F 69.8 °F 70% 29.94 in 7.0 mi SE 10.4 mph - N/A   Mostly Cloudy
3:50 PM 77.0 °F - 68.0 °F 74% 29.92 in 10.0 mi SSE 8.1 mph - N/A   Mostly Cloudy
6:50 PM 71.6 °F - 66.2 °F 83% 29.93 in 7.0 mi Calm Calm - N/A   Overcast
7:50 PM 69.8 °F - 66.2 °F 88% 29.93 in 7.0 mi East 3.5 mph - N/A   Overcast
8:50 PM 68.0 °F - 64.4 °F 88% 29.94 in 4.0 mi ESE 5.8 mph - N/A   Overcast
9:13 PM 68.0 °F - 64.4 °F 88% 29.95 in 3.0 mi ESE 5.8 mph - N/A   Mist
9:50 PM 66.2 °F - 64.4 °F 94% 29.95 in 1.0 mi SE 5.8 mph - N/A   Mist
10:50 PM 66.2 °F - 64.4 °F 94% 29.95 in 0.5 mi Calm Calm - N/A Fog Fog
11:50 PM 64.4 °F - 64.4 °F 100% 29.95 in 2.0 mi North 12.7 mph - N/A   Overcast